Location: Stonelick Lake State Park
(39.2170°N, 84.0850°W)
Time: 14:13:59
(UTC-04:00)

Daily predictions for brighter satellites

Satellite Brightness Start Highest point End
(mag) Time Altitude Azimuth Time Altitude Azimuth Time Altitude Azimuth
METEOR-M 4.2 19:45:09 10° SSE 19:50:30 85° ENE 19:55:52 10° NNW
FENGYUN 3A 3.9 19:46:19 10° SE 19:51:27 51° ENE 19:56:39 10° N
USA 229 DEB 4.5 19:45:40 10° NW 19:52:45 63° WSW 19:59:58 10° SSE
USA 229 4.4 19:45:46 10° NW 19:52:51 63° WSW 20:00:04 10° SSE
ORS 1 (USA 231) 4.4 19:50:36 10° W 19:53:33 76° SSW 19:56:29 10° ESE
NOSS 3-1 (A) 4.2 19:49:44 10° NNW 19:57:19 61° NE 20:05:38 10° SE
Cosmos 841 Rocket 3.5 19:54:35 10° SSW 19:59:43 87° ESE 20:04:53 10° NNE
CZ-4 R/B 4.0 19:57:07 10° SSW 20:00:41 27° W 20:04:20 10° NW
H-2A R/B 3.7 19:57:52 10° SE 20:01:03 27° ENE 20:04:17 10° NNE
Cosmos 1544 4.0 19:58:12 10° SSE 20:01:15 26° E 20:04:20 10° NNE
Cosmos 2150 Rocket 4.4 19:57:20 10° NNW 20:02:41 73° WSW 20:08:05 10° S
SJ-6B 3.8 19:59:22 10° SE 20:02:43 26° ENE 20:06:02 10° NNE
NOSS 3-1 (C) 4.1 19:57:07 10° NNW 20:04:50 85° ENE 20:13:21 10° SE
BREEZE-M (TANK) 4.3 19:46:09 10° WNW 20:05:04 82° NNE 20:09:21 10° ESE
USA 81 4.0 20:01:50 10° N 20:07:09 75° E 20:12:24 10° S
Cosmos 1937 Rocket 4.3 20:02:21 10° NNW 20:07:33 58° WSW 20:12:40 10° S
Cosmos 1953 4.1 20:05:44 10° ESE 20:07:46 14° E 20:09:48 10° NE
COSMO-SKYMED 1 3.6 20:03:42 10° N 20:07:55 52° WNW 20:12:08 10° SSW
Cosmos 540 Rocket 3.6 20:03:58 10° S 20:08:52 50° ESE 20:13:49 10° NNE
Cosmos 1758 Rocket 4.4 20:07:49 10° NNW 20:12:14 56° W 20:16:37 10° S
Cosmos 1378 3.6 20:10:16 10° NNW 20:14:02 67° W 20:17:46 10° S
SL-27 R/B 3.5 20:11:35 10° SSE 20:14:34 25° E 20:17:35 10° NE
Cosmos 304 Rocket 4.3 20:14:51 10° SSW 20:19:35 63° WNW 20:24:23 10° NNE
BREEZE M DEB (TANK) 4.5 20:12:34 10° W 20:20:16 31° NNW 20:23:16 10° NE
COSMOS 2406 3.2 20:15:22 10° SSW 20:21:03 83° ESE 20:26:50 10° NNE
Cosmos 1707 3.9 20:17:54 10° NNW 20:21:42 48° W 20:25:28 10° SSW
SJ 16-02 2.3 20:18:30 10° N 20:22:20 29° ENE 20:24:56 16° ESE
In-Cosmos 22 4.3 20:17:01 10° N 20:22:40 57° ENE 20:28:19 10° SSE
HJ-1C 3.9 20:20:07 10° SE 20:23:14 38° ENE 20:26:24 10° N
Meteor 1-22 Rocket 4.1 20:19:42 10° S 20:25:22 76° E 20:30:51 10° NNE
Cosmos 1356 Rocket 3.5 20:21:09 10° N 20:25:29 90° WSW 20:29:47 10° S
Cosmos 1674 4.2 20:23:11 10° NNE 20:25:43 17° ENE 20:25:44 17° ENE
Cosmos 1766 3.1 20:23:54 10° S 20:27:48 77° E 20:31:43 10° N
Meteor 2-5 Rocket 4.4 20:25:57 10° NNW 20:31:41 62° W 20:37:17 10° S
Cosmos 2228 4.1 20:28:06 10° SSW 20:32:18 48° W 20:36:30 10° N
ISS -3.8 20:35:18 10° SW 20:38:33 83° NW 20:40:34 22° NE
FengYun 1-2 T 4.2 20:33:26 10° SSE 20:39:02 84° ENE 20:44:37 10° NNW
ALOS 3.2 20:34:36 10° S 20:39:08 50° W 20:43:41 10° NNW
Cosmos 2074 Rocket 4.1 20:33:42 10° S 20:39:54 80° W 20:46:08 10° N
Cosmos 2154 Rocket 4.1 20:34:20 10° SSE 20:40:20 53° E 20:46:25 10° NNE
MOS 1-B Rocket 4.4 20:37:07 15° SE 20:41:28 38° ENE 20:46:37 10° N
BREEZE-M DEB (TANK) 3.8 20:30:43 10° WSW 20:45:12 89° SSE 20:48:26 20° ENE
Elektron 1 3.9 20:49:21 10° NNW 20:52:24 48° NE 20:52:34 47° ENE
Cosmos 1758 3.3 20:49:12 10° S 20:53:08 57° E 20:57:04 10° NNE
Spot 2 Rocket 3.8 20:50:59 27° ESE 20:53:11 43° ENE 20:57:56 10° N
Cosmos 1812 Rocket 3.5 20:50:29 10° S 20:54:56 89° SE 20:59:27 10° N
Cosmos 2341 Rocket 4.1 20:49:40 10° SSE 20:55:35 49° E 21:01:33 10° NNE
FREGAT/IRIS 4.4 20:53:18 10° SSW 20:56:05 33° W 20:58:51 10° NNW
Meteor 2-8 Rocket 4.4 20:50:22 10° N 20:56:31 87° W 21:02:36 10° S
Cosmos 2082 Rocket 4.2 20:53:05 10° SSE 21:03:56 - NE 20:53:28 12° SSE
Cosmos 1805 3.3 20:54:10 10° S 20:58:03 79° W 21:01:58 10° N
ATLAS 5 CENTAUR R/B 3.4 20:56:24 10° S 20:57:40 17° SSE 20:57:40 17° SSE
Resurs 01 Rocket 1.6 21:01:55 36° SE 21:03:33 62° ENE 21:07:55 10° N
GP-B 2.9 21:00:25 10° N 21:04:52 75° E 21:08:55 12° S
CZ-2D R/B 3.1 21:04:03 36° SSE 21:05:31 86° ENE 21:09:21 10° N
Cosmos 2278 4.2 21:00:56 10° N 21:06:13 39° ENE 21:07:09 36° E
ATLAS CENTAUR R/B 3.9 20:55:21 10° NW 21:06:57 51° WSW 21:10:27 17° S
Meteor 2-19 Rocket 4.5 21:01:40 10° S 21:07:42 80° W 21:13:47 10° N
Cosmos 1939 Rocket 4.3 21:12:33 25° NNE 21:12:33 25° NNE 21:14:35 10° N
Nadezhda 3 Rocket 3.9 21:04:47 10° N 21:11:07 84° E 21:17:19 10° S
Cosmos 1656 4.2 21:10:37 10° N 21:15:54 38° ENE 21:16:07 38° ENE
Cosmos 2218 Rocket 4.5 21:20:07 38° ENE 21:20:07 38° ENE 21:25:00 10° NNE
Cosmos 1125 Rocket 4.5 21:17:08 10° NNW 21:22:12 46° WSW 21:27:14 10° S
Cosmos 2285 Rocket 3.9 21:16:12 10° S 21:22:32 66° ESE 21:28:55 10° NNE
Cosmos 1697 Rocket 3.7 21:18:26 10° N 21:22:57 30° NE 21:22:57 30° NE
Cosmos 1809 Rocket 4.4 21:18:20 13° S 21:23:40 61° E 21:29:40 10° NNE
Cosmos 1980 Rocket 3.8 21:21:32 10° N 21:24:38 19° NE 21:24:38 19° NE
Envisat 2.8 21:24:15 48° SSE 21:25:41 84° ENE 21:30:48 10° N
Cosmos 1295 Rocket 4.3 21:20:44 10° S 21:26:49 78° E 21:32:54 10° N
Okean 3 Rocket 3.5 21:25:09 10° N 21:29:16 74° NNE 21:29:16 74° NNE
Gbstr 26 Del rocket 4.1 21:27:31 10° SSW 21:31:04 42° S 21:31:04 42° S
ATLAS 2AS CENTAUR R/B 3.0 21:31:25 10° NNW 21:39:17 56° NE 21:40:36 51° E
Meteor 2-15 4.3 21:33:17 10° N 21:39:20 68° E 21:39:39 67° E
SL-8 Rocket 3.8 21:38:36 58° SSE 21:39:40 71° E 21:45:48 10° NNE
Meteor 2-14 Rocket 4.5 21:43:34 59° ENE 21:43:34 59° ENE 21:48:52 10° NNE
Cosmos 1953 3.7 21:40:00 10° SSW 21:43:47 39° WNW 21:47:37 10° N
Meteor 2-21 Rocket 4.3 21:50:33 76° ENE 21:50:33 76° ENE 21:56:27 10° N
H-2A R/B 4.4 21:57:09 11° NNE 21:57:09 11° NNE 21:57:27 10° NNE
NOSS 3-3 (A) 4.0 21:50:50 10° SSW 22:05:31 - NE 21:55:46 62° SSW
NOSS 3-3 (C) 4.1 21:50:56 10° SSW 22:05:39 - NE 21:55:39 57° SSW
SJ 16-02 3.4 21:57:19 10° NW 22:00:46 23° W 22:02:00 20° WSW
Cosmos 2369 4.3 22:11:08 10° NNW 22:16:07 51° W 22:16:07 51° W
Milstar 3 Cent rocket 4.4 22:18:32 10° SW 22:19:08 13° SW 22:19:08 13° SW
Centaur D AC-29 4.0 22:22:47 10° SW 22:24:06 13° SW 22:24:06 13° SW
FALCON 9 R/B 4.1 22:34:46 10° W 22:36:10 22° WSW 22:36:10 22° WSW
Cosmos 2082 Rocket 4.5 22:45:39 16° N 22:45:39 16° N 22:46:55 10° N
Cosmos 1980 Rocket 4.3 23:04:29 10° NNW 23:06:24 22° NW 23:06:24 22° NW
ATLAS 2AS CENTAUR R/B 4.4 23:23:08 10° NW 23:28:02 29° W 23:28:02 29° W
